SCP
0 0 0 0 0 0 0 0 0 0 0 0 0 0 0 0 0 0 0 0 0 0
0 0 0 0 0 0 0 0 0 0 0 0 0 0 0 0 0 0 0 0 0 0
0 0 0 0 0 0 0 0 0 0 0 0 0 0 0 0 0 0 0 0 0 0
0 0 0 0 0 0 0 0 0 0 0 0 0 0 0 0 0 0 0 0 0 0
0 0 0 0 0 0 0 0 0 0 0 0 0 0 0 0 0 0 0 0 0 0
0 0 0 0 0 0 0 0 0 0 0 0 0 0 0 0 0 0 0 0 0 0
0 0 0 0 0 0 0 0 0 0 0 0 0 0 0 0 0 0 0 0 0 0
0 0 0 0 0 0 0 0 0 0 0 0 0 0 0 0 0 0 0 0 0 0
0 0 0 0 0 0 0 0 0 0 0 0 0 0 0 0 0 0 0 0 0 0
0 0 0 0 0 0 0 0 0 0 0 0 0 0 0 0 0 0 0 0 0 0
0 0 0 0 0 0 0 0 0 0 0 0 0 0 0 0 0 0 0 0 0 0
0 0 0 0 0 0 0 0 0 -0 0 0 0 0 0 0 0 0 0 0 0 0
0 0 0 0 0 -0 -0 -0 -0 0 0 0 0 0 0 0 0 0 0 0 0 0
0 0 0 0 0 -0 -0 -0 -0 0 0 0 0 0 0 0 0 0 0 0 0 0
Wind_Speed_500mb
35 37 38 38 35 33 34 48 49 45 44 46 50 54 56 51 53 60 65 63 72 82
27 29 33 35 36 35 29 24 30 40 44 48 47 50 39 41 45 47 50 55 58 64
23 25 26 28 30 30 31 30 29 36 36 32 30 34 33 37 38 38 41 46 48 54
23 24 24 24 25 27 27 28 29 32 33 31 25 20 19 18 20 23 26 29 31 38
22 24 26 26 27 27 30 33 34 34 33 31 28 23 21 24 28 29 28 28 27 38
19 19 22 24 26 26 23 23 24 23 24 24 26 31 32 33 31 30 30 33 35 45
11 12 14 13 9 9 11 13 15 16 17 20 24 25 29 26 28 25 30 31 30 29
5 9 11 14 15 7 3 4 5 9 16 19 19 21 20 21 22 24 25 23 18 13
10 10 12 13 12 11 14 13 12 11 14 12 14 15 14 8 5 6 5 4 2 3
9 10 11 10 12 11 11 10 9 12 12 12 15 19 19 18 14 12 11 9 8 6
11 11 14 12 12 12 12 14 17 18 16 16 18 17 19 19 15 9 5 3 6 9
13 15 17 17 19 21 19 21 22 22 19 17 17 14 14 13 10 11 9 8 9 9
20 22 23 25 26 25 21 19 19 17 16 18 16 14 14 12 12 12 12 11 12 13
28 27 26 23 20 18 17 17 14 14 14 13 14 15 17 17 16 16 17 17 18 18
Wind_Direction_500mb
262 261 262 266 270 275 275 259 261 256 264 268 271 275 279 271 272 272 275 278 270 270
266 260 260 263 263 263 261 261 274 267 266 270 276 278 272 272 273 271 273 275 278 280
269 263 261 263 261 257 256 254 259 267 275 281 281 281 281 276 277 272 272 277 281 282
272 267 266 264 262 259 257 258 262 270 279 283 286 285 291 297 304 312 314 289 285 279
286 276 270 264 263 263 261 262 266 270 273 275 273 268 269 276 279 279 280 286 291 298
294 296 283 270 260 266 272 276 274 274 275 276 279 280 283 280 279 283 287 286 279 279
339 356 355 356 343 303 282 278 281 285 295 304 304 307 306 310 313 308 302 293 289 286
36 29 34 31 32 20 336 269 301 353 345 347 341 333 323 317 313 304 300 300 310 304
82 84 74 70 66 68 69 61 51 38 18 12 358 343 336 330 335 344 346 359 345 20
105 95 85 82 76 67 70 66 59 58 51 50 59 64 60 57 48 35 27 22 21 5
123 122 105 95 93 92 88 77 69 72 72 62 75 71 59 47 39 31 29 346 300 282
120 118 112 114 107 96 86 84 80 75 70 64 57 50 51 33 9 340 335 315 309 310
119 118 117 110 104 97 90 78 71 67 61 50 41 36 23 5 353 341 335 324 314 316
111 112 112 110 105 94 81 72 63 54 46 30 16 3 352 344 337 328 320 314 310 306
Wind_Speed_850mb
35 37 38 38 35 33 34 48 49 45 44 46 50 54 56 51 53 60 65 63 72 82
27 29 33 35 36 35 29 24 30 40 44 48 47 50 39 41 45 47 50 55 58 64
23 25 26 28 30 30 31 30 29 36 36 32 30 34 33 37 38 38 41 46 48 54
23 24 24 24 25 27 27 28 29 32 33 31 25 20 19 18 20 23 26 29 31 38
22 24 26 26 27 27 30 33 34 34 33 31 28 23 21 24 28 29 28 28 27 38
19 19 22 24 26 26 23 23 24 23 24 24 26 31 32 33 31 30 30 33 35 45
11 12 14 13 9 9 11 13 15 16 17 20 24 25 29 26 28 25 30 31 30 29
5 9 11 14 15 7 3 4 5 9 16 19 19 21 20 21 22 24 25 23 18 13
10 10 12 13 12 11 14 13 12 11 14 12 14 15 14 8 5 6 5 4 2 3
9 10 11 10 12 11 11 10 9 12 12 12 15 19 19 18 14 12 11 9 8 6
11 11 14 12 12 12 12 14 17 18 16 16 18 17 19 19 15 9 5 3 6 9
13 15 17 17 19 21 19 21 22 22 19 17 17 14 14 13 10 11 9 8 9 9
20 22 23 25 26 25 21 19 19 17 16 18 16 14 14 12 12 12 12 11 12 13
28 27 26 23 20 18 17 17 14 14 14 13 14 15 17 17 16 16 17 17 18 18
Wind_Direction_850mb
262 261 262 266 270 275 275 259 261 256 264 268 271 275 279 271 272 272 275 278 270 270
266 260 260 263 263 263 261 261 274 267 266 270 276 278 272 272 273 271 273 275 278 280
269 263 261 263 261 257 256 254 259 267 275 281 281 281 281 276 277 272 272 277 281 282
272 267 266 264 262 259 257 258 262 270 279 283 286 285 291 297 304 312 314 289 285 279
286 276 270 264 263 263 261 262 266 270 273 275 273 268 269 276 279 279 280 286 291 298
294 296 283 270 260 266 272 276 274 274 275 276 279 280 283 280 279 283 287 286 279 279
339 356 355 356 343 303 282 278 281 285 295 304 304 307 306 310 313 308 302 293 289 286
36 29 34 31 32 20 336 269 301 353 345 347 341 333 323 317 313 304 300 300 310 304
82 84 74 70 66 68 69 61 51 38 18 12 358 343 336 330 335 344 346 359 345 20
105 95 85 82 76 67 70 66 59 58 51 50 59 64 60 57 48 35 27 22 21 5
123 122 105 95 93 92 88 77 69 72 72 62 75 71 59 47 39 31 29 346 300 282
120 118 112 114 107 96 86 84 80 75 70 64 57 50 51 33 9 340 335 315 309 310
119 118 117 110 104 97 90 78 71 67 61 50 41 36 23 5 353 341 335 324 314 316
111 112 112 110 105 94 81 72 63 54 46 30 16 3 352 344 337 328 320 314 310 306